Barking Sands, HI

6:22 PM HST on April 25, 2018 (GMT -1000)
Barking Sands PMRF

Weather History for PHBK - October, 2011

Change the Weather History Date:

Thursday, October 20, 2011

  Actual Average Record
Temperature  
Mean Temperature 78 °F -  
Max Temperature 84 °F 86 °F 90 °F (1977)
Min Temperature 71 °F 65 °F 62 °F (1976)
Cooling Degree Days 12    
Growing Degree Days 28 (Base 50)    
Moisture  
Dew Point 63 °F    
Average Humidity 61    
Maximum Humidity 73    
Minimum Humidity 53    
Precipitation  
Precipitation 0.00 in - - ()
Sea Level Pressure  
Sea Level Pressure 30.02 in    
Wind  
Wind Speed 4 mph (NE)    
Max Wind Speed 10 mph    
Max Gust Speed -    
Visibility 10 miles    
Events      
Averages and records for this station are not official NWS values.
T = Trace of Precipitation, MM = Missing Value Source: NWS Daily Summary

Daily Weather History Graph

Daily Weather History Graph

Search for Another Location

Airport or City:

Astronomy

Oct. 20, 2011 Rise Set
Actual Time 6:37 AM HST 6:10 PM HST
Civil Twilight 6:14 AM HST 6:32 PM HST
Nautical Twilight 5:48 AM HST 6:58 PM HST
Astronomical Twilight 5:22 AM HST 7:24 PM HST
Moon 12:23 AM HST (10/20) 1:41 PM HST (10/20)
Length of Visible Light 12h 18m
Length of Day
11h 32m
Last Quarter, 42% of the Moon is Illuminated
Oct 20
Last Quarter
Oct 26
New
Nov 2
First Quarter
Nov 10
Full
Nov 18
Last Quarter

Hourly Weather History & Observations

Time (HST) Temp. Heat Index Dew Point Humidity Pressure Visibility Wind Dir Wind Speed Gust Speed Precip Events Conditions
1:56 AM 73.9 °F - 61.0 °F 64% 30.02 in 10.0 mi Calm Calm - N/A   Overcast
2:56 AM 71.6 °F - 62.6 °F 73% 30.00 in 10.0 mi East 4.6 mph - N/A   Mostly Cloudy
3:02 AM - - - N/A% - - North - - N/A   Unknown
3:56 AM 72.0 °F - 61.0 °F 68% 30.00 in 10.0 mi East 3.5 mph - N/A   Clear
4:56 AM 72.0 °F - 61.0 °F 68% 30.00 in 10.0 mi East 4.6 mph - N/A   Clear
5:56 AM 73.0 °F - 61.0 °F 66% 30.01 in 10.0 mi East 3.5 mph - N/A   Overcast
6:56 AM 73.9 °F - 62.1 °F 66% 30.03 in 10.0 mi East 3.5 mph - N/A   Mostly Cloudy
7:56 AM 79.0 °F - 64.0 °F 60% 30.04 in 10.0 mi ENE 3.5 mph - N/A   Clear
8:56 AM 80.1 °F 82.1 °F 66.0 °F 62% 30.06 in 10.0 mi West 3.5 mph - N/A   Clear
9:56 AM 80.1 °F 82.1 °F 66.0 °F 62% 30.06 in 10.0 mi WSW 5.8 mph - N/A   Clear
10:56 AM 82.9 °F 85.0 °F 66.0 °F 56% 30.05 in 10.0 mi West 8.1 mph - N/A   Mostly Cloudy
11:56 AM 82.0 °F 84.1 °F 66.0 °F 58% 30.03 in 10.0 mi NNW 9.2 mph - N/A   Mostly Cloudy
12:56 PM 82.9 °F 84.6 °F 64.9 °F 54% 30.01 in 10.0 mi NNW 9.2 mph - N/A   Mostly Cloudy
1:56 PM 84.0 °F 85.8 °F 64.9 °F 53% 29.99 in 10.0 mi NNW 9.2 mph - N/A   Scattered Clouds
2:56 PM 82.9 °F 84.6 °F 64.9 °F 54% 29.97 in 10.0 mi West 8.1 mph - N/A   Partly Cloudy
3:56 PM 84.0 °F 86.3 °F 66.0 °F 55% 29.98 in 10.0 mi WNW 10.4 mph - N/A   Mostly Cloudy
4:56 PM 82.9 °F 84.6 °F 64.9 °F 54% 29.99 in 10.0 mi NW 8.1 mph - N/A   Mostly Cloudy
5:56 PM 81.0 °F 82.7 °F 64.9 °F 58% 30.01 in 10.0 mi NW 3.5 mph - N/A   Scattered Clouds
6:56 PM 79.0 °F - 64.9 °F 62% 30.03 in 10.0 mi SE 4.6 mph - N/A   Partly Cloudy
7:56 PM 75.9 °F - 59.0 °F 56% 30.04 in 10.0 mi East 5.8 mph - N/A   Clear
8:56 PM 73.9 °F - 57.9 °F 57% 30.05 in 10.0 mi ESE 3.5 mph - N/A   Clear
9:56 PM 72.0 °F - 57.9 °F 61% 30.06 in 10.0 mi SE 3.5 mph - N/A   Clear
10:56 PM 71.1 °F - 57.9 °F 63% 30.06 in 10.0 mi East 4.6 mph - N/A   Clear
11:56 PM 71.1 °F - 59.0 °F 66% 30.05 in 10.0 mi SE 3.5 mph - N/A   Clear